Weather in Pissouri

Cyprus     34°39′56″N   32°42′12″E
temp.,
°C
wind,
m/s
gust,
m/s
humid.,
%
clouds,
%
prec.,
mm/h
press.,
hPa
HPBL,
m
20 january, wed
wed2023:00+6wnw6117020 0.2 1016285
02:00+6nw6107013 0.3 1015244
05:00+5nnw6106626 0.1 1016207
08:00+6nw8126519 0.1 1017514
11:00+9nw911490 0.0 10201476
14:00+9nnw56390 0.0 10211288
17:00+7nw45500 0.0 102491
20:00+4n33550 0.0 102550
21 january, thu
thu2123:00+4n23450 0.0 102730
02:00+4n22450 0.0 102633
05:00+4nne22500 0.0 102838
08:00+6nne12530 0.0 102832
11:00+10sse114113 0.0 1030699
14:00+11s224852 0.0 1028929
17:00+8s116895 0.0 102958
20:00+6ne227758 0.0 103037
22 january, fri
fri2223:00+6ne22738 0.0 103039
02:00+5ne12744 0.0 102935
05:00+5nne12700 0.0 102836
08:00+7ene12670 0.0 102942
11:00+11ese23510 0.0 1029908
14:00+12s325741 0.0 10271060
17:00+10ssw1170100 0.0 1026330
20:00+8nw1176100 0.0 102761
23 january, sat
sat2323:00+7nne2375100 0.0 102639
02:00+7ne2365100 0.0 102537
05:00+7ne3363100 0.0 102439
08:00+8nne236587 0.0 102446
11:00+12s12460 0.0 1024721
14:00+13sw43540 0.0 1023673
17:00+10wsw33701 0.0 102265
20:00+8nne12791 0.0 102334
24 january, sun
sun2423:00+7ene128230 0.0 102336
02:00+6nw118262 0.0 102334
05:00+7nne1174100 0.0 102231
08:00+8se0172100 0.0 102343
11:00+12wsw1150100 0.0 1022710
14:00+13wsw3250100 0.0 1022864
17:00+11w346935 0.0 102188
20:00+9ene127866 0.0 102240